| time (UTC) | temp F | wind direction | speed MPH | gust MPH | rain 1hr in | rain 24hr in | rain mn in | humidity % | barometer mb |
| 20260509211548 | 72 | 323 | 2.0 | 10.0 | 0.00 | 0.00 | 0.00 | 69 | 1011.7 |
| 20260509210056 | 70 | 306 | 3.0 | 9.0 | 0.00 | 0.00 | 0.00 | 70 | 1011.8 |
| 20260509204537 | 71 | 286 | 3.0 | 9.0 | 0.00 | 0.00 | 0.00 | 69 | 1011.9 |
| 20260509203041 | 71 | 276 | 4.0 | 9.0 | 0.00 | 0.00 | 0.00 | 70 | 1012.0 |
| 20260509201555 | 72 | 258 | 1.0 | 11.0 | 0.00 | 0.00 | 0.00 | 69 | 1012.0 |
| 20260509200042 | 71 | 282 | 2.0 | 8.0 | 0.00 | 0.00 | 0.00 | 69 | 1012.0 |
| 20260509194540 | 72 | 250 | 3.0 | 9.0 | 0.00 | 0.00 | 0.00 | 72 | 1012.0 |
| 20260509193046 | 74 | 242 | 3.0 | 10.0 | 0.00 | 0.00 | 0.00 | 67 | 1012.0 |
| 20260509191544 | 72 | 244 | 4.0 | 9.0 | 0.00 | 0.00 | 0.00 | 71 | 1012.0 |
| 20260509190046 | 74 | 251 | 2.0 | 7.0 | 0.00 | 0.00 | 0.00 | 69 | 1012.1 |
| 20260509184545 | 73 | 242 | 3.0 | 9.0 | 0.00 | 0.00 | 0.00 | 70 | 1012.0 |
| 20260509183040 | 72 | 275 | 3.0 | 8.0 | 0.00 | 0.00 | 0.00 | 72 | 1012.0 |
| 20260509181539 | 73 | 286 | 3.0 | 8.0 | 0.00 | 0.00 | 0.00 | 72 | 1012.1 |
| 20260509180040 | 72 | 311 | 1.0 | 5.0 | 0.00 | 0.00 | 0.00 | 72 | 1012.1 |
| 20260509174536 | 71 | 265 | 3.0 | 8.0 | 0.00 | 0.00 | 0.00 | 74 | 1012.4 |
| 20260509173041 | 70 | 287 | 1.0 | 5.0 | 0.00 | 0.00 | 0.00 | 75 | 1012.4 |
| 20260509171543 | 69 | 184 | 0.0 | 5.0 | 0.00 | 0.00 | 0.00 | 77 | 1012.4 |
| 20260509170048 | 67 | 205 | 3.0 | 8.0 | 0.00 | 0.00 | 0.00 | 79 | 1012.3 |
| 20260509164543 | 67 | 327 | 0.0 | 4.0 | 0.00 | 0.00 | 0.00 | 81 | 1012.4 |
| 20260509163053 | 65 | 277 | 1.0 | 4.0 | 0.00 | 0.00 | 0.00 | 84 | 1012.7 |
| 20260509161550 | 63 | 266 | 0.0 | 4.0 | 0.00 | 0.00 | 0.00 | 87 | 1012.6 |
| 20260509160039 | 63 | 0 | 0.0 | 2.0 | 0.00 | 0.00 | 0.00 | 87 | 1012.7 |
| 20260509154540 | 62 | 0 | 0.0 | 2.0 | 0.00 | 0.00 | 0.00 | 88 | 1012.7 |
| 20260509153043 | 62 | 0 | 0.0 | 2.0 | 0.00 | 0.00 | 0.00 | 90 | 1012.7 |
| 20260509151539 | 61 | 0 | 1.0 | 3.0 | 0.00 | 0.00 | 0.00 | 90 | 1012.5 |
| 20260509150043 | 61 | 272 | 0.0 | 2.0 | 0.00 | 0.00 | 0.00 | 91 | 1012.8 |
| 20260509144542 | 61 | 0 | 0.0 | 0.0 | 0.00 | 0.00 | 0.00 | 91 | 1012.5 |
| 20260509143046 | 61 | 0 | 0.0 | 2.0 | 0.00 | 0.00 | 0.00 | 92 | 1012.4 |
| 20260509141540 | 61 | 274 | 1.0 | 3.0 | 0.00 | 0.00 | 0.00 | 92 | 1012.5 |
| 20260509140038 | 61 | 269 | 0.0 | 2.0 | 0.00 | 0.00 | 0.00 | 92 | 1012.3 |
| 20260509134541 | 61 | 0 | 0.0 | 0.0 | 0.00 | 0.00 | 0.00 | 92 | 1012.4 |
| 20260509133047 | 61 | 0 | 0.0 | 2.0 | 0.00 | 0.00 | 0.00 | 92 | 1012.3 |
| 20260509131539 | 61 | 274 | 0.0 | 2.0 | 0.00 | 0.00 | 0.00 | 92 | 1012.2 |
| 20260509130041 | 61 | 0 | 0.0 | 2.0 | 0.00 | 0.00 | 0.00 | 92 | 1012.1 |
| 20260509124547 | 61 | 0 | 0.0 | 3.0 | 0.00 | 0.00 | 0.00 | 92 | 1012.1 |
| 20260509123042 | 61 | 225 | 0.0 | 3.0 | 0.00 | 0.00 | 0.00 | 92 | 1012.1 |
| 20260509121551 | 61 | 0 | 0.0 | 2.0 | 0.00 | 0.00 | 0.00 | 92 | 1011.9 |
| 20260509120042 | 61 | 0 | 1.0 | 3.0 | 0.00 | 0.00 | 0.00 | 92 | 1012.0 |
| 20260509114555 | 61 | 278 | 1.0 | 3.0 | 0.00 | 0.00 | 0.00 | 92 | 1012.1 |
| 20260509113036 | 61 | 0 | 0.0 | 2.0 | 0.00 | 0.00 | 0.00 | 92 | 1012.0 |
| 20260509111534 | 61 | 255 | 0.0 | 2.0 | 0.00 | 0.00 | 0.00 | 92 | 1012.0 |
| 20260509110041 | 61 | 0 | 0.0 | 1.0 | 0.00 | 0.00 | 0.00 | 92 | 1012.0 |
| 20260509104540 | 61 | 0 | 0.0 | 2.0 | 0.00 | 0.00 | 0.00 | 92 | 1012.2 |
| 20260509103039 | 61 | 0 | 1.0 | 4.0 | 0.00 | 0.00 | 0.00 | 91 | 1012.2 |
| 20260509101538 | 61 | 0 | 0.0 | 3.0 | 0.00 | 0.00 | 0.00 | 91 | 1012.3 |
| 20260509100035 | 61 | 0 | 0.0 | 3.0 | 0.00 | 0.00 | 0.00 | 91 | 1012.2 |
| 20260509094547 | 61 | 0 | 0.0 | 3.0 | 0.00 | 0.00 | 0.00 | 91 | 1012.3 |
| 20260509093041 | 61 | 0 | 0.0 | 1.0 | 0.00 | 0.00 | 0.00 | 91 | 1012.4 |
| 20260509091543 | 61 | 0 | 0.0 | 0.0 | 0.00 | 0.00 | 0.00 | 91 | 1012.5 |
| 20260509090056 | 61 | 0 | 0.0 | 1.0 | 0.00 | 0.00 | 0.00 | 91 | 1012.7 |
| 20260509084542 | 61 | 0 | 0.0 | 1.0 | 0.00 | 0.00 | 0.00 | 91 | 1012.8 |
| 20260509083048 | 61 | 0 | 0.0 | 2.0 | 0.00 | 0.00 | 0.00 | 91 | 1012.8 |
| 20260509081542 | 61 | 0 | 0.0 | 2.0 | 0.00 | 0.00 | 0.00 | 91 | 1013.0 |
| 20260509080056 | 61 | 0 | 0.0 | 3.0 | 0.00 | 0.00 | 0.00 | 91 | 1013.1 |
| 20260509074540 | 61 | 0 | 0.0 | 3.0 | 0.00 | 0.00 | 0.00 | 90 | 1013.1 |
| 20260509073034 | 61 | 0 | 0.0 | 2.0 | 0.00 | 0.00 | 0.00 | 90 | 1013.3 |
| 20260509071543 | 61 | 0 | 0.0 | 2.0 | 0.00 | 0.00 | 0.00 | 90 | 1013.3 |
| 20260509070046 | 61 | 0 | 0.0 | 1.0 | 0.00 | 0.00 | 0.00 | 90 | 1013.5 |
| 20260509064539 | 61 | 240 | 1.0 | 3.0 | 0.00 | 0.00 | 0.00 | 90 | 1013.6 |
| 20260509063044 | 61 | 0 | 0.0 | 3.0 | 0.00 | 0.00 | 0.00 | 89 | 1013.5 |
| 20260509061545 | 62 | 0 | 0.0 | 1.0 | 0.00 | 0.00 | 0.00 | 89 | 1013.6 |
| 20260509060042 | 62 | 0 | 0.0 | 1.0 | 0.00 | 0.00 | 0.00 | 90 | 1013.6 |
| 20260509054542 | 61 | 0 | 0.0 | 1.0 | 0.00 | 0.00 | 0.00 | 89 | 1013.6 |
| 20260509053044 | 61 | 32 | 0.0 | 2.0 | 0.00 | 0.00 | 0.00 | 89 | 1013.8 |
| 20260509051544 | 62 | 0 | 0.0 | 1.0 | 0.00 | 0.00 | 0.00 | 89 | 1013.7 |
| 20260509050050 | 61 | 275 | 0.0 | 1.0 | 0.00 | 0.00 | 0.00 | 89 | 1013.8 |
| 20260509044542 | 62 | 0 | 0.0 | 1.0 | 0.00 | 0.00 | 0.00 | 89 | 1013.7 |
| 20260509043046 | 62 | 0 | 0.0 | 2.0 | 0.00 | 0.00 | 0.00 | 88 | 1013.6 |
| 20260509041541 | 62 | 348 | 0.0 | 2.0 | 0.00 | 0.00 | 0.00 | 88 | 1013.5 |
| 20260509040040 | 62 | 322 | 0.0 | 2.0 | 0.00 | 0.00 | 0.00 | 88 | 1013.5 |
| 20260509034536 | 62 | 257 | 0.0 | 3.0 | 0.00 | 0.00 | 0.00 | 88 | 1013.4 |
| 20260509033057 | 62 | 0 | 0.0 | 3.0 | 0.00 | 0.00 | 0.00 | 88 | 1013.2 |
| 20260509031541 | 62 | 0 | 0.0 | 3.0 | 0.00 | 0.00 | 0.00 | 87 | 1013.2 |
| 20260509030040 | 63 | 275 | 0.0 | 4.0 | 0.00 | 0.00 | 0.00 | 87 | 1013.2 |
| 20260509024540 | 62 | 232 | 0.0 | 3.0 | 0.00 | 0.00 | 0.00 | 87 | 1013.0 |
| 20260509023044 | 63 | 284 | 0.0 | 4.0 | 0.00 | 0.00 | 0.00 | 86 | 1012.8 |
| 20260509021542 | 63 | 244 | 0.0 | 3.0 | 0.00 | 0.00 | 0.00 | 85 | 1012.8 |
| 20260509020040 | 64 | 0 | 0.0 | 3.0 | 0.00 | 0.00 | 0.00 | 83 | 1012.6 |
| 20260509014539 | 65 | 0 | 0.0 | 4.0 | 0.00 | 0.00 | 0.00 | 81 | 1012.5 |
| 20260509013042 | 67 | 0 | 1.0 | 4.0 | 0.00 | 0.00 | 0.00 | 79 | 1012.4 |
| 20260509011536 | 67 | 287 | 2.0 | 6.0 | 0.00 | 0.00 | 0.00 | 78 | 1012.3 |
| 20260509010040 | 68 | 279 | 1.0 | 5.0 | 0.00 | 0.00 | 0.00 | 77 | 1012.3 |
| 20260509004553 | 69 | 265 | 1.0 | 6.0 | 0.00 | 0.00 | 0.00 | 76 | 1012.3 |
| 20260509003042 | 70 | 327 | 1.0 | 4.0 | 0.00 | 0.00 | 0.00 | 74 | 1012.2 |
| 20260509001538 | 70 | 262 | 0.0 | 7.0 | 0.00 | 0.00 | 0.00 | 74 | 1012.3 |
| 20260509000046 | 69 | 306 | 2.0 | 10.0 | 0.00 | 0.00 | 0.00 | 75 | 1012.4 |
| 20260508234542 | 70 | 274 | 1.0 | 7.0 | 0.00 | 0.00 | 0.00 | 74 | 1012.5 |
| 20260508233041 | 71 | 271 | 2.0 | 8.0 | 0.00 | 0.00 | 0.00 | 72 | 1012.7 |
| 20260508231545 | 72 | 0 | 2.0 | 6.0 | 0.00 | 0.00 | 0.00 | 70 | 1012.9 |
| 20260508230036 | 71 | 243 | 2.0 | 8.0 | 0.00 | 0.00 | 0.00 | 72 | 1013.0 |
| 20260508224558 | 70 | 238 | 2.0 | 9.0 | 0.00 | 0.00 | 0.00 | 73 | 1013.2 |
| 20260508223040 | 72 | 255 | 4.0 | 9.0 | 0.00 | 0.00 | 0.00 | 71 | 1013.2 |
| 20260508221548 | 72 | 5 | 2.0 | 8.0 | 0.00 | 0.00 | 0.00 | 72 | 1013.3 |
| 20260508220040 | 72 | 300 | 2.0 | 10.0 | 0.00 | 0.00 | 0.00 | 71 | 1013.5 |
| 20260508214540 | 72 | 196 | 2.0 | 9.0 | 0.00 | 0.00 | 0.00 | 70 | 1013.6 |
| 20260508213044 | 73 | 229 | 4.0 | 9.0 | 0.00 | 0.00 | 0.00 | 69 | 1013.5 |